Regional Weather Roundup
Issued by NWS

Home | Current Version | Previous Version | Graphics & Text | Print | Product List | Glossary On
Versions: 1 2 3 4 5 6 7 8 9 10 11 12 13 14 15 16 17 18 19 20 21 22 23 24 25 26 27 28 29 30 31 32 33 34 35 36 37 38 39 40 41 42 43 44 45 46 47 48 49 50
000
ASUS45 KBOU 040607
RWRCO

WEATHER ROUNDUP FOR COLORADO
NATIONAL WEATHER SERVICE DENVER/BOULDER CO
1200 AM MDT FRI SEP 04 2015

NOTE: "FAIR" INDICATES FEW OR NO CLOUDS BELOW 12000 FEET WITH NO
SIGNIFICANT WEATHER AND/OR OBSTRUCTIONS TO VISIBILITY.

COZ001>005-013-030-031-040700-
...NORTHWEST COLORADO...

CITY           SKY/WX    TMP DP  RH WIND       PRES   REMARKS
CRAIG          CLEAR     59  47  64 E7        30.06S
HAYDEN         PTCLDY    55  43  62 E14       30.08F
MEEKER         CLEAR     59  47  64 E9        30.06F
MOUNT WERNER   NOT AVBL
STEAMBOAT SPGS CLEAR     48  44  84 N3        30.12F
WALDEN         CLEAR     41  37  87 SE8       30.20F
$$

COZ006>008-011-040700-
...WEST CENTRAL VALLEYS...

CITY           SKY/WX    TMP DP  RH WIND       PRES   REMARKS
GRAND JUNCTION CLEAR     68  50  52 SE13      29.95S
MONTROSE       CLEAR     62  49  62 SE9       30.06F
EAGLE          CLEAR     52  48  87 E3        30.17S
RIFLE          CLEAR     58  53  84 CALM      30.04R
DELTA          CLEAR     62  50  63 CALM      30.02S
NUCLA          NOT AVBL
$$

COZ017>023-064>068-040700-
...SOUTHWEST COLORADO...

CITY           SKY/WX    TMP DP  RH WIND       PRES   REMARKS
DURANGO        MOCLDY    58  42  55 N3        30.13S
CORTEZ         CLEAR     65  44  46 N5        30.07S
PAGOSA SPRINGS MOCLDY    53  44  70 CALM      30.21F
TELLURIDE      PTCLDY    52  42  69 SE5       30.32S
WOLF CREEK PAS NOT AVBL
$$

COZ009-010-012-014-032>034-037-058>063-040700-
...CENTRAL COLORADO...

CITY           SKY/WX    TMP DP  RH WIND       PRES   REMARKS
ASPEN          CLEAR     49  44  83 CALM      30.20R
BUENA VISTA    CLEAR     48  44  86 SW3       30.23R
COPPER MTN     CLEAR     46  34  61 SW17      30.47S
BERTHOUD PASS  FAIR      37  28  70 W24G32    30.48F
COTTONWOOD PAS CLEAR     55  37  50 CALM      30.34S
GUNNISON       MOCLDY    52  45  76 N5        30.25S
KREMMLING      CLEAR     45  43  93 CALM      30.22S
LEADVILLE      CLEAR     39  38  96 E6        30.33S
MONARCH PASS   MOCLDY    45  36  70 W21       30.57F
SALIDA         PTCLDY    56  45  66 CALM      30.27R
SUNLIGHT       CLEAR     46  43  87 CALM      30.41S
WILKERSON PASS PTCLDY    45  39  81 W9        30.43F
$$

COZ069>075-040700-
...SAN LUIS VALLEY/SANGRE DE CRISTO MOUNTAINS...

CITY           SKY/WX    TMP DP  RH WIND       PRES   REMARKS
ALAMOSA        CLOUDY    51  46  83 SE5       30.20F
LA VETA PASS   NOT AVBL
SAGUACHE       PTCLDY    48  45  87 N8        30.23F
$$

COZ035-036-038>040-040700-
...NORTHERN COLORADO FRONT RANGE...

CITY           SKY/WX    TMP DP  RH WIND       PRES   REMARKS
DENVER INTL AP PTCLDY    59  53  80 SW8       29.99F
DMNS CITY PARK   N/A     60  54  80 SE7       29.99S
AURORA         PTCLDY    58  53  83 S5        30.01F
FRONT RANGE AP CLEAR     59  52  77 SW5       30.00F
ERIE MUNI ARPT CLEAR     55  53  93 CALM      29.97F
BOULDER MUN AP CLEAR     59  52  77 CALM      29.98S
CENTENNIAL     PTCLDY    61  53  75 CALM      30.02F
BROOMFIELD     CLEAR     59  48  67 SW5       30.00F
FORT COLLINS   CLEAR     61  48  63 N3        29.97F
LONGMONT       CLEAR     55  50  82 CALM      29.99S
$$

COZ041-046-047-076>085-087-088-040700-
...PIKES PEAK/PALMER DIVIDE AND SOUTHERN FOOTHILLS...

CITY           SKY/WX    TMP DP  RH WIND       PRES   REMARKS
COLO. SPRINGS  PTCLDY    61  50  67 CALM      30.06S
A. F. ACADEMY  PTCLDY    56  49  78 NE8       30.07S
ELLICOTT       PTCLDY   N/A N/A N/A CALM      30.04S
FALCON         PTCLDY    59  46  62 MISG      30.10S
FORT CARSON    PTCLDY    60  52  75 NW9       30.03R
LIMON          PTCLDY    58  52  80 NW7       30.00S
MONUMENT HILL  PTCLDY    54  48  82 SW9       30.11S
TRINIDAD       PTCLDY    62  47  57 SW7       30.05S
$$

COZ042>045-048>051-090-091-040700-
...NORTHEAST COLORADO...

CITY           SKY/WX    TMP DP  RH WIND       PRES   REMARKS
GREELEY ARPT   CLEAR     55  52  88 CALM      29.96F
AKRON          MOCLDY    63  51  65 W8        29.94F
BURLINGTON     PTCLDY    67  51  56 NW10      29.91F
WRAY           CLOUDY    66  61  83 W5        29.86S
STERLING       MOCLDY    63  54  72 W6        29.88F
HOLYOKE        CLOUDY    68  57  68 N6        29.86F
FORT MORGAN    MOCLDY    58  51  75 NW5       29.95S
$$

COZ086-089-092>099-040700-
...SOUTHEAST COLORADO...

CITY           SKY/WX    TMP DP  RH WIND       PRES   REMARKS
PUEBLO         MOCLDY    67  53  61 CALM      29.95S
LA JUNTA       MOCLDY    71  51  49 CALM      29.92S
LAMAR          PTCLDY    73  53  49 NW10      29.87R
SPRINGFIELD      N/A     71  47  42 SW5       29.94R
$$



USA.gov is the U.S. government's official web portal to all federal, state and local government web resources and services.